Wind_Speed
19 18 17 16 15 15 14 12 11 11 11 11 11 11 12 12 13 13 14 14 14 15 16 17 17 18 19 19 19 19 19 19 19 19 20 20 21 22 22 23 25 26 26 27 26 26 26 27 28 29 28 28 31 34 34 33 35 38 37 34 33 31 31 26 16 16 26 21 20 24 23 28 25 21 21 21 23 24 23 29 35 35 33 31 29
19 18 17 16 16 15 13 12 12 11 11 12 12 12 12 13 14 14 14 15 15 16 17 17 18 18 19 20 20 20 20 20 20 20 21 21 21 22 22 23 25 25 26 27 28 28 28 28 27 28 29 29 31 32 33 31 30 33 35 35 36 34 32 29 23 18 20 18 16 18 20 24 24 22 22 22 26 26 24 29 33 32 32 32 31
19 18 17 16 15 15 13 12 12 11 12 12 12 13 13 13 14 14 15 16 16 17 17 18 18 19 20 21 21 21 21 21 21 22 23 23 23 23 22 23 24 25 26 27 27 28 29 29 28 27 28 30 30 30 31 33 32 31 32 33 36 37 36 33 28 23 20 19 14 16 20 22 22 23 23 23 26 25 23 28 29 26 28 31 32
18 17 17 16 15 14 13 12 12 12 12 12 12 13 13 14 14 15 16 16 17 17 18 18 19 20 22 22 22 23 23 23 23 24 24 24 24 24 24 24 25 25 27 27 27 28 29 29 29 28 29 30 30 30 29 32 34 34 33 32 32 35 39 37 33 28 23 19 16 18 24 24 21 22 25 26 26 23 22 26 25 22 24 28 30
17 17 16 15 15 14 13 12 12 12 12 12 12 13 13 14 14 15 16 17 17 18 18 19 21 22 23 23 24 24 24 24 24 25 26 25 26 25 25 25 25 26 27 28 29 29 29 30 30 29 30 31 30 30 30 30 32 32 33 34 34 33 37 39 36 32 27 21 19 20 26 27 23 23 27 28 26 22 21 23 22 21 22 22 26
17 16 15 15 15 14 12 12 11 11 11 11 12 12 13 14 15 15 16 17 18 19 20 21 22 24 24 25 25 26 26 26 25 26 26 27 27 27 27 27 26 27 27 28 30 30 30 30 30 30 31 32 32 31 30 31 30 30 33 36 35 32 33 36 38 36 30 25 23 21 24 29 26 24 27 29 28 26 23 21 19 19 22 23 24
16 15 15 14 13 12 12 11 10 10 10 11 12 12 13 14 15 16 17 18 19 20 21 23 24 25 26 27 27 27 27 27 27 27 27 27 28 28 28 29 28 28 28 28 29 30 31 31 31 32 32 32 33 32 32 31 29 30 35 36 35 34 33 34 36 36 32 27 25 23 25 29 28 24 25 26 27 28 28 25 21 19 23 24 26
15 15 14 13 12 11 11 10 10 10 11 11 12 13 14 15 15 16 17 18 20 21 22 23 24 25 26 27 27 27 28 28 28 27 27 27 28 29 29 30 29 29 29 29 30 30 32 32 32 34 34 34 34 32 32 32 30 31 36 35 35 35 34 32 31 32 32 28 24 23 25 26 24 24 26 25 24 25 28 29 25 22 22 22 25
15 14 14 13 11 11 10 10 10 11 11 12 13 13 14 15 16 17 18 19 21 22 23 24 25 26 27 27 28 28 28 29 28 28 28 28 27 28 29 29 30 31 30 30 30 31 32 33 33 35 36 36 36 35 35 34 32 32 32 33 35 35 33 30 27 29 31 28 23 23 24 22 22 26 28 27 26 27 29 28 24 22 22 19 21
15 14 13 12 11 10 10 10 10 11 12 12 12 13 14 15 16 17 18 20 22 23 24 25 26 27 28 28 29 29 29 30 30 31 31 30 29 28 28 28 28 30 31 32 31 31 31 32 33 36 38 40 40 40 40 38 36 35 32 32 35 36 36 32 27 28 30 26 23 24 23 21 24 29 29 29 30 30 31 28 24 23 23 19 17
14 13 12 11 10 10 10 10 11 11 12 12 13 14 15 15 16 17 19 21 22 23 24 25 26 27 28 29 29 30 31 32 32 33 34 33 32 31 30 30 30 29 30 31 32 31 31 32 33 34 37 41 42 42 43 43 42 40 37 35 36 37 39 35 29 30 31 26 25 27 26 25 28 28 28 30 31 32 32 29 26 26 24 20 17
13 12 11 10 10 10 10 10 11 11 12 12 13 14 14 15 16 18 20 21 23 23 24 25 26 27 28 29 30 31 33 34 34 35 36 36 35 34 32 32 33 32 31 31 31 30 30 31 32 32 33 37 40 40 41 43 45 45 42 39 38 39 39 35 30 32 33 29 26 27 28 29 29 28 30 33 33 34 33 29 27 27 25 23 20
12 11 10 9 9 9 9 10 11 12 12 12 13 13 14 15 16 18 20 22 23 24 24 25 26 27 28 30 31 32 33 34 35 35 36 37 37 37 35 33 34 35 34 33 32 31 30 30 30 31 31 33 36 37 37 38 41 45 46 43 41 40 42 40 35 35 37 35 31 30 31 31 30 32 38 41 38 35 32 28 28 27 24 23 20
11 10 9 8 8 8 9 10 11 12 12 12 13 14 15 15 16 18 21 23 24 25 26 26 26 27 28 29 30 32 32 33 34 35 35 35 35 36 37 36 37 39 38 37 35 34 32 31 31 31 31 30 31 34 35 35 34 38 43 46 45 42 42 44 41 36 36 36 32 31 33 34 36 39 44 46 43 39 36 33 31 28 24 21 19
10 9 8 8 8 8 9 10 11 12 12 13 14 15 15 15 17 19 21 23 24 25 27 27 28 28 28 29 31 32 33 33 34 35 35 35 35 35 35 34 37 41 42 40 39 37 36 34 34 33 32 30 30 31 33 34 33 31 34 40 44 42 42 44 44 40 39 37 32 28 30 36 40 42 45 47 44 41 39 36 33 31 26 22 20
9 8 8 7 8 8 9 10 11 12 13 14 15 16 15 16 18 19 21 24 25 26 28 28 29 30 29 30 32 34 35 35 35 36 36 36 38 38 35 34 36 41 42 41 40 39 37 36 36 36 34 33 34 34 33 34 34 32 32 33 35 36 38 42 43 41 42 41 37 31 30 34 39 42 46 48 43 37 34 31 32 33 29 23 21
8 7 7 7 7 8 9 11 12 12 13 14 16 16 15 17 19 19 21 25 27 27 29 29 29 30 31 32 33 35 36 35 35 36 36 36 37 36 35 36 37 39 39 40 40 39 39 38 37 37 36 36 39 38 34 34 35 35 33 31 31 31 33 36 39 39 39 41 41 37 33 34 38 41 45 47 45 41 36 33 34 35 29 20 16
7 5 5 6 7 8 10 11 12 13 14 15 16 16 16 18 20 18 19 25 27 28 29 29 29 30 31 32 34 35 36 36 36 37 37 37 38 36 34 35 37 37 37 37 37 38 39 39 40 39 38 37 39 40 38 36 35 36 34 31 30 30 28 30 33 33 33 33 35 36 34 34 36 39 43 46 46 45 41 37 38 37 27 18 16
4 3 4 6 7 9 10 11 12 13 14 15 16 16 17 19 20 19 21 25 28 29 29 29 30 31 32 33 34 35 36 36 36 38 39 39 40 39 36 34 35 36 35 34 35 36 37 38 40 43 44 41 38 40 41 38 35 36 36 32 30 27 25 29 32 31 30 28 27 29 31 34 37 41 44 46 45 44 41 39 42 38 26 19 21
2 3 5 6 8 9 10 11 12 13 14 15 16 16 17 19 19 19 22 26 27 28 28 28 31 32 33 34 34 34 36 36 36 37 38 38 39 39 37 34 33 32 33 34 33 34 35 36 37 41 46 47 45 43 44 41 35 33 34 34 31 24 23 28 31 32 31 28 26 27 29 33 38 41 43 42 40 39 35 34 39 37 28 26 28
1 4 5 6 8 9 10 11 12 12 14 16 16 16 17 18 17 19 23 25 26 27 28 29 31 32 32 32 33 33 34 35 36 36 37 37 37 37 38 37 34 31 32 34 34 34 34 34 35 36 39 44 46 48 50 47 39 35 35 36 32 23 22 27 29 30 31 29 28 28 29 32 35 37 39 37 36 36 33 31 33 31 30 32 31
2 4 5 7 8 9 10 10 12 12 14 16 17 17 17 16 16 20 23 25 25 27 28 28 29 30 30 30 31 32 33 33 34 34 35 35 36 37 39 40 38 34 33 33 34 35 33 32 32 34 36 40 43 46 50 52 45 40 38 36 29 23 25 28 29 29 30 29 29 30 30 32 32 33 34 32 31 31 29 29 29 25 25 29 29
2 4 6 7 8 9 10 11 12 12 13 14 16 17 18 17 18 21 23 23 24 26 26 26 27 28 29 29 29 30 31 31 31 32 32 33 34 36 38 40 40 38 37 35 33 33 32 31 31 32 34 38 41 41 44 48 46 41 38 33 27 25 28 30 31 32 32 31 31 30 30 32 33 32 31 30 28 26 26 28 27 23 22 22 22
2 4 6 7 8 9 10 11 12 12 13 14 15 16 17 17 18 21 21 21 23 24 24 25 26 27 28 28 28 29 29 29 29 29 31 32 33 35 38 39 39 38 38 37 33 32 31 31 32 34 35 36 39 39 40 42 42 38 34 29 26 27 30 33 34 34 32 31 30 28 27 29 31 31 30 29 29 29 28 28 25 23 22 21 18
2 4 6 7 8 10 11 11 12 12 13 14 14 14 16 17 18 21 21 20 21 22 23 24 24 25 26 26 27 29 30 30 29 28 29 30 32 33 35 36 37 38 40 39 36 34 35 35 32 32 33 33 33 35 37 39 39 35 31 28 29 30 32 34 36 35 32 29 28 27 25 25 28 31 32 33 34 34 32 30 28 26 25 24 20
2 3 5 7 8 10 11 12 12 13 14 13 12 13 15 16 18 20 20 20 20 20 22 23 23 24 24 25 27 29 30 29 29 27 27 28 29 30 31 30 31 34 39 42 41 40 43 41 34 27 26 28 28 30 35 37 36 34 31 30 31 32 33 36 38 36 32 29 28 29 28 28 30 34 37 38 37 37 36 35 32 30 30 30 29
1 2 4 6 7 9 11 11 12 13 13 12 11 12 14 16 17 18 19 19 20 20 21 22 22 23 23 24 26 28 29 28 28 27 26 28 31 31 29 27 26 28 35 41 44 44 43 41 35 26 23 25 25 28 32 34 33 33 31 30 30 32 35 38 39 37 33 31 30 31 31 33 35 36 37 38 37 37 38 37 34 31 30 32 32
1 3 4 5 7 10 10 10 11 13 13 12 11 12 13 14 16 17 17 17 18 20 20 20 21 22 23 25 26 26 26 26 26 27 29 33 36 34 30 27 24 22 30 37 40 39 36 32 26 22 22 23 22 23 26 29 30 32 30 27 28 32 34 35 35 35 34 34 35 34 35 36 36 36 35 34 34 35 34 33 33 32 31 30 28
1 2 3 4 7 10 10 9 11 13 13 12 11 11 11 12 13 15 16 16 18 19 20 21 22 23 25 26 25 25 26 27 28 31 35 36 35 31 28 26 22 19 26 33 33 31 28 23 20 20 21 22 21 20 22 24 26 26 25 25 27 30 31 32 32 34 35 38 38 37 36 36 35 34 34 33 32 32 31 30 31 30 27 25 22
1 1 3 5 7 10 10 10 11 13 13 13 12 11 11 12 12 13 17 19 20 20 21 22 24 25 26 27 26 26 27 29 30 32 34 32 28 24 21 21 20 17 22 30 30 26 23 22 21 20 21 21 20 20 21 23 23 22 22 24 28 31 31 32 34 36 38 39 39 38 37 35 34 33 34 34 32 29 29 31 31 28 24 22 20
1 3 5 6 6 8 10 10 12 13 13 13 13 12 12 13 14 15 19 22 22 22 22 22 23 26 27 28 29 28 27 27 27 27 27 25 22 18 16 15 13 11 20 28 28 24 22 20 18 18 20 21 21 22 24 24 25 25 24 24 26 29 31 32 35 38 39 39 37 37 36 36 34 33 33 34 34 32 30 29 28 25 23 22 21
2 4 6 6 6 8 9 10 11 12 14 14 14 12 13 14 15 16 19 23 23 22 22 22 23 26 27 27 29 30 29 26 25 24 22 19 14 11 9 6 5 10 14 17 19 21 21 19 18 19 20 19 21 24 25 25 27 30 31 28 26 27 31 34 36 39 41 40 37 35 35 35 34 33 33 35 36 33 30 26 24 23 23 21 21
2 4 5 7 8 9 9 10 10 12 13 14 14 13 13 14 16 18 19 22 23 21 20 22 25 27 27 27 28 29 28 25 23 22 21 18 13 7 4 5 9 9 5 5 10 14 15 15 17 19 19 18 20 23 24 26 30 33 33 31 29 29 33 36 36 37 38 37 35 35 34 34 34 33 34 35 35 33 29 25 23 23 22 21 21
1 2 4 6 9 9 9 9 10 11 12 13 14 14 13 14 17 18 18 20 23 22 20 23 27 28 28 28 28 28 26 25 23 21 19 18 15 11 9 8 8 7 5 5 7 9 11 13 14 16 17 17 21 25 26 28 31 31 30 30 31 32 34 35 35 36 35 34 33 33 33 33 34 35 34 34 34 33 30 26 23 22 21 21 21
3 3 3 4 7 9 9 10 10 9 11 13 14 14 13 13 15 17 16 16 21 23 22 25 28 28 28 29 30 29 26 25 25 22 19 17 14 13 14 14 13 13 12 10 7 6 9 11 11 14 18 20 23 27 28 28 28 29 31 33 34 34 34 34 34 35 35 33 33 33 30 29 31 34 35 35 35 34 30 26 23 22 22 21 20
4 5 6 6 7 9 10 10 9 10 11 12 12 14 14 13 14 15 14 14 17 21 22 24 27 28 29 31 32 29 26 25 25 24 22 19 16 17 18 18 17 17 17 15 13 11 10 11 13 17 20 21 24 26 27 27 27 29 32 35 35 34 35 35 34 34 34 34 35 33 30 27 27 31 35 36 35 32 29 26 23 22 22 21 20
6 7 6 7 9 11 12 11 10 10 11 11 11 13 15 14 13 13 12 12 15 18 20 23 25 27 29 32 33 30 27 25 26 26 25 23 21 22 21 19 17 18 19 17 16 15 14 14 17 19 20 20 22 24 25 26 28 29 31 32 33 33 34 34 34 34 34 35 35 33 30 27 27 30 34 36 33 30 28 25 24 23 22 21 20
6 7 7 8 10 12 13 13 12 11 11 12 12 12 13 14 14 12 10 10 13 15 18 21 24 24 26 30 33 30 26 26 27 27 26 25 23 22 22 21 20 19 20 19 18 17 18 18 18 19 20 20 22 23 25 27 29 31 31 31 32 33 33 33 34 35 35 35 34 33 31 30 28 29 33 35 32 29 27 26 26 25 23 20 18
8 10 10 9 9 11 12 13 13 12 11 12 13 12 12 13 14 12 10 10 10 13 17 19 21 22 25 30 33 30 25 24 24 24 24 24 23 21 21 21 20 19 20 21 21 20 21 21 21 20 21 22 23 24 25 28 30 31 34 36 37 36 35 33 33 33 33 34 34 33 31 30 28 28 31 34 33 31 29 27 25 23 20 18 18
11 12 9 5 7 11 12 13 14 12 11 11 13 12 12 13 13 12 12 10 9 10 14 16 19 21 25 29 32 29 23 22 23 23 23 23 23 23 22 21 20 21 21 21 22 23 24 25 25 24 24 24 25 26 27 29 30 31 33 36 37 36 34 33 31 30 31 34 34 33 31 30 28 29 30 32 33 32 29 26 22 20 20 21 21
12 13 10 7 8 11 12 12 13 12 10 9 10 11 12 12 12 12 12 11 9 8 9 12 17 22 25 27 29 27 24 22 23 24 23 23 23 23 22 21 22 22 21 20 21 24 26 27 26 26 26 26 26 26 27 29 30 31 32 33 32 32 32 33 31 30 31 33 34 33 32 30 29 29 30 31 31 29 26 23 22 22 22 22 22
10 12 12 10 10 11 11 11 13 13 10 8 9 11 11 11 12 12 11 11 10 8 6 8 13 20 24 25 26 26 24 24 24 23 23 23 22 22 22 22 23 23 23 23 22 23 25 25 25 24 25 25 24 24 25 26 28 30 31 30 29 29 30 31 31 31 31 32 33 33 32 30 30 30 30 29 28 26 24 23 23 22 21 20 20
7 9 9 9 10 12 10 9 10 12 10 8 8 9 10 11 12 13 12 10 10 9 7 6 7 12 18 22 24 24 24 23 23 22 21 21 21 23 24 24 23 23 25 27 26 26 27 28 27 26 26 24 23 24 25 26 28 30 30 30 29 29 29 29 30 30 31 31 32 32 32 31 30 29 27 26 26 25 24 23 22 21 20 20 18
6 7 7 8 9 9 7 7 9 10 10 7 6 7 9 11 12 13 13 12 10 9 8 6 5 6 10 15 19 21 21 21 21 21 20 20 21 23 24 24 23 23 25 27 27 28 30 31 30 30 28 27 26 28 28 28 29 31 30 30 29 29 29 29 29 29 30 32 32 32 31 30 29 27 26 26 26 25 23 22 21 20 20 18 17
6 7 6 7 8 8 7 8 9 8 7 7 8 8 9 10 11 12 13 13 12 10 8 7 6 5 6 8 12 15 17 18 18 18 19 19 20 21 22 24 25 25 26 26 27 29 30 31 32 32 31 29 29 29 30 30 30 30 29 29 29 29 29 29 29 29 30 30 30 30 29 28 27 26 25 25 23 23 21 20 20 20 18 18 17
8 8 6 5 6 6 7 7 7 7 7 7 8 9 9 10 12 11 9 8 11 11 10 8 8 7 6 6 6 8 11 13 15 17 18 18 19 20 21 23 24 25 26 27 27 29 30 30 30 30 30 29 29 29 29 29 29 29 29 28 28 28 29 29 29 29 29 29 29 28 27 25 25 24 24 22 21 20 20 20 19 18 18 18 18
9 9 8 7 6 5 5 5 5 5 6 6 8 9 9 11 13 13 9 8 11 13 12 10 9 9 7 6 6 6 6 8 11 14 16 16 17 19 20 21 22 23 24 25 27 28 28 28 28 28 27 27 27 27 28 28 28 28 27 26 26 27 27 28 27 26 26 26 26 25 24 24 23 22 21 20 20 21 20 19 18 18 18 18 17
11 11 10 10 9 7 7 6 5 4 4 5 6 7 8 10 13 15 14 14 15 15 13 11 10 9 8 7 6 6 6 6 6 8 11 13 14 15 16 19 20 20 21 22 24 25 27 27 27 26 26 25 26 26 27 27 27 27 27 26 25 25 25 24 23 22 22 22 22 22 23 23 22 20 20 21 21 21 20 19 18 18 17 16 15
13 13 12 12 12 11 10 9 8 7 7 6 6 6 8 10 12 13 14 15 16 16 15 13 11 10 9 8 7 6 6 6 6 6 7 9 10 10 12 15 17 19 20 20 20 22 23 25 25 25 25 26 26 26 26 25 25 25 24 24 23 22 20 20 20 19 19 20 20 21 21 21 20 21 21 21 19 19 18 18 17 16 16 15 14
13 14 14 14 14 13 12 11 10 9 9 10 10 10 11 12 12 13 14 15 16 16 16 16 15 13 11 11 10 9 8 8 7 6 6 7 7 7 8 10 11 14 16 18 19 20 21 21 22 23 24 25 25 23 21 20 20 20 19 18 17 15 14 16 18 18 18 19 19 20 20 21 21 21 20 19 18 18 18 17 16 15 15 15 14
13 14 14 14 15 15 14 14 13 11 12 13 14 14 15 16 16 15 15 15 15 16 16 17 17 15 14 12 11 11 10 9 8 7 7 7 7 7 7 7 8 9 10 12 15 17 18 19 20 20 21 22 21 19 17 17 18 17 16 14 12 10 12 16 19 19 18 19 19 20 21 21 20 20 19 18 18 18 17 16 15 15 14 14 13
Wind_Direction
195 195 195 195 193 192 195 199 205 210 215 221 229 236 240 244 249 253 257 260 262 265 268 269 271 272 271 270 268 266 264 262 260 259 259 259 257 257 258 257 255 253 251 250 248 248 246 244 241 237 234 235 235 234 234 233 230 229 230 227 228 229 227 234 240 253 271 259 195 192 195 184 184 179 173 180 181 174 179 187 187 187 188 189 191
195 196 195 196 195 195 197 201 206 212 218 224 231 238 243 246 249 252 256 260 263 265 268 270 271 272 272 271 270 267 264 263 261 259 258 258 257 258 258 258 258 256 254 252 249 248 247 246 244 240 235 234 235 235 234 233 229 227 228 226 226 227 224 226 230 237 259 256 210 190 185 178 180 183 181 176 173 174 182 187 185 185 188 189 190
196 196 197 197 196 197 200 204 210 215 221 228 235 241 246 249 251 254 258 263 266 267 269 270 270 271 272 272 271 270 268 264 262 260 258 257 256 256 255 256 259 258 256 254 251 250 249 247 246 242 238 235 234 235 233 232 233 230 228 226 223 224 223 223 224 227 243 251 223 181 171 175 179 185 189 184 177 175 177 180 179 177 183 188 190
197 197 197 197 197 199 202 207 213 217 224 233 241 246 249 252 255 259 262 267 269 268 269 270 271 272 273 272 272 271 270 267 264 261 259 258 257 257 255 254 256 257 257 256 253 252 252 251 249 244 241 238 235 234 234 234 235 232 228 226 222 221 221 221 220 221 230 239 223 187 171 176 184 185 182 179 178 175 169 171 170 167 175 184 190
196 197 197 196 197 201 205 210 216 221 229 239 246 250 254 257 260 262 265 268 269 270 271 271 272 272 271 272 271 270 269 267 265 263 260 258 256 256 256 254 254 254 255 256 255 253 252 252 251 248 244 241 237 234 234 234 233 232 229 228 226 221 218 218 217 218 223 227 222 199 174 173 185 185 176 171 169 167 164 165 164 162 166 176 188
194 197 197 197 200 204 209 215 221 228 235 244 251 255 258 261 264 265 268 270 271 272 273 273 271 270 270 270 270 270 269 267 266 264 262 260 257 256 254 254 254 253 253 254 254 253 252 251 250 250 247 244 241 237 234 233 231 230 228 227 227 222 217 215 214 215 220 220 219 206 176 171 180 181 177 173 165 160 159 158 159 160 162 169 181
193 198 199 199 203 208 213 219 226 234 242 250 255 258 262 265 267 269 272 273 274 275 275 273 272 270 269 269 269 269 268 267 266 265 262 260 259 257 255 254 253 253 252 253 253 253 252 250 249 249 248 246 243 240 237 235 231 227 226 226 227 225 221 216 209 209 215 216 212 201 179 176 178 172 174 174 164 159 157 156 157 161 167 174 179
193 196 198 202 208 214 218 224 231 240 248 254 258 260 265 268 270 274 275 276 276 277 276 274 273 271 270 269 269 268 267 267 265 263 262 260 259 258 257 256 255 254 253 252 252 253 252 251 248 246 246 247 245 243 240 237 234 230 228 226 225 225 225 221 210 205 212 215 208 194 181 180 176 166 170 174 166 164 167 164 160 160 167 177 180
191 194 198 203 210 216 221 227 236 245 250 254 258 262 267 272 274 276 277 277 278 278 276 275 273 272 271 269 268 267 266 265 263 261 261 260 260 259 258 257 256 255 254 253 252 253 252 251 249 247 246 246 246 246 244 241 238 235 231 227 223 222 226 228 215 203 208 213 207 192 182 180 173 166 171 177 173 170 171 167 161 158 162 166 173
190 195 200 204 210 217 224 232 239 246 250 254 260 265 270 274 276 278 280 280 281 280 278 277 275 273 272 270 268 267 265 264 262 262 262 262 262 262 261 261 259 257 256 255 253 253 253 252 250 249 248 247 247 248 248 247 244 242 237 232 226 223 225 227 215 201 204 210 204 190 180 180 180 174 174 178 176 169 167 166 161 158 158 155 162
191 196 202 207 212 219 228 238 244 248 252 257 263 268 272 276 278 281 284 284 284 283 281 279 277 275 274 271 269 266 265 263 263 263 264 265 264 263 263 263 263 262 260 258 256 254 254 254 253 250 248 247 246 247 249 249 249 247 244 239 233 226 224 224 214 203 204 208 204 193 184 185 186 178 172 173 173 171 171 171 165 160 161 161 164
191 196 205 211 217 226 237 246 250 253 258 261 266 272 275 278 281 284 286 288 288 287 285 282 280 277 275 273 270 268 266 264 265 264 264 264 265 265 265 262 261 261 260 260 259 256 254 254 254 252 249 246 244 243 246 248 249 250 248 244 239 233 229 226 217 207 206 208 206 197 189 187 182 173 171 171 171 174 177 175 169 166 169 173 173
193 199 207 216 226 237 245 252 256 258 262 266 271 275 276 279 283 287 290 291 291 290 288 285 282 279 277 275 272 270 268 267 266 266 265 264 263 264 264 262 259 258 258 258 259 258 255 253 253 253 251 248 245 242 242 245 247 248 249 247 243 237 234 233 228 217 210 207 204 196 190 185 177 174 179 179 175 175 177 178 177 175 176 182 182
198 203 212 223 236 246 250 256 261 263 266 269 273 274 276 279 285 290 292 292 292 292 291 288 285 282 279 277 276 273 271 269 269 268 267 267 265 263 261 259 257 257 256 256 255 255 255 253 252 252 251 250 246 241 240 241 243 244 245 245 242 238 235 235 236 229 217 210 205 198 191 187 182 182 187 187 181 178 179 181 182 179 177 180 178
202 207 217 230 243 251 254 258 263 266 268 271 273 274 277 282 288 294 295 293 292 293 292 290 287 284 281 279 278 276 274 272 272 270 268 267 268 267 264 259 257 257 255 254 253 252 251 252 252 251 252 253 249 242 239 239 239 240 238 237 237 234 232 234 236 235 226 218 213 204 196 193 190 189 191 190 185 183 183 183 180 174 168 160 155
207 211 219 234 248 256 261 264 267 270 270 273 275 277 281 286 293 298 297 294 293 293 293 291 288 285 283 281 279 278 275 274 272 271 269 266 266 266 264 261 258 257 255 253 251 250 248 248 250 250 252 256 254 248 243 239 238 239 238 234 230 228 228 231 234 234 231 227 222 213 204 199 197 195 194 189 184 182 179 172 168 165 156 143 141
215 217 222 241 256 263 267 269 271 272 273 276 278 280 286 292 296 301 299 296 296 296 295 293 290 287 286 283 281 279 277 276 274 272 270 267 264 262 260 259 257 256 255 252 250 249 247 245 245 247 250 252 251 249 247 242 238 239 240 238 231 227 224 224 225 227 227 226 222 213 204 199 199 199 196 188 184 183 173 162 162 164 155 144 146
217 223 234 257 270 273 275 274 273 274 277 280 282 286 293 296 298 303 303 299 298 299 297 295 292 290 288 286 284 282 280 278 276 274 271 268 266 263 259 259 258 255 254 253 249 248 246 244 242 243 246 248 247 246 247 248 243 237 239 241 236 231 222 211 208 211 213 214 211 206 202 200 201 203 199 192 190 189 183 174 172 171 162 155 155
215 239 264 278 282 282 281 278 275 277 279 282 287 292 297 299 300 304 303 300 300 300 299 296 294 292 291 289 287 285 282 280 277 274 272 268 266 263 260 258 257 255 254 253 249 247 246 244 241 241 242 245 247 244 244 250 249 240 237 239 238 232 217 202 197 197 198 200 197 195 198 199 199 199 196 194 194 192 190 186 181 175 165 157 156
220 279 286 286 283 281 279 277 277 279 283 288 292 296 298 301 306 309 305 302 302 301 299 298 296 295 293 291 289 287 284 282 278 275 272 269 265 262 258 255 253 253 251 250 249 246 245 243 241 241 240 242 245 244 241 245 251 246 237 235 237 229 207 198 197 192 191 191 185 182 183 183 184 184 183 183 184 184 186 190 186 180 172 167 167
249 285 287 283 282 281 281 283 285 287 290 294 295 296 299 304 311 313 308 304 302 301 300 300 298 296 295 294 292 290 287 283 280 277 273 271 268 265 261 256 252 249 246 245 245 244 242 241 241 240 239 239 241 243 240 240 247 251 243 236 235 223 196 190 192 188 187 187 180 174 170 167 167 170 170 171 175 179 183 187 184 182 183 180 176
262 278 283 281 284 287 286 288 291 290 291 296 299 300 304 313 317 312 307 305 303 303 303 302 300 299 298 296 294 293 290 285 281 278 275 273 271 269 265 262 257 248 240 240 242 240 240 242 241 239 238 236 238 241 239 237 242 250 248 239 232 216 193 185 183 179 177 176 169 163 159 157 157 160 163 166 171 176 178 177 176 180 187 186 181
269 282 284 283 286 288 288 292 294 293 295 299 302 303 307 315 317 310 307 306 305 304 304 304 303 301 299 298 297 295 295 291 285 281 279 277 276 274 270 267 262 249 237 235 238 238 239 241 242 240 236 233 234 236 236 235 238 244 244 236 222 204 189 182 178 173 167 164 161 156 155 156 154 156 160 162 164 166 166 168 172 173 172 174 178
265 281 283 287 294 295 298 301 299 300 304 304 304 307 311 314 313 309 308 306 304 304 305 304 305 303 300 299 298 297 298 296 291 287 283 281 280 278 273 270 265 251 236 231 234 236 238 239 240 239 236 233 232 231 230 231 233 234 233 222 203 188 181 177 174 168 161 158 156 153 153 155 153 153 156 155 154 153 152 155 160 161 159 160 166
257 284 295 306 313 310 308 308 306 308 310 307 308 314 315 314 314 312 310 305 302 305 306 305 304 302 299 299 299 300 301 300 296 292 288 285 283 281 277 273 266 252 237 230 229 232 236 239 240 238 234 232 229 225 223 223 222 221 218 205 188 180 178 173 169 163 158 156 155 151 148 149 148 148 148 146 146 146 143 139 139 139 142 143 143
255 294 321 326 326 321 317 316 316 315 310 307 313 319 316 314 317 316 310 304 302 305 308 307 306 303 300 301 302 303 304 303 300 298 295 292 289 286 285 282 272 254 238 230 229 230 234 240 248 247 232 224 222 218 216 213 209 208 206 194 181 178 177 172 166 161 156 153 152 148 144 143 143 143 142 141 142 142 139 134 128 125 128 130 128
278 340 347 338 336 333 328 324 320 316 313 313 317 319 317 317 320 319 313 306 303 305 309 311 311 308 307 305 305 305 306 305 304 302 301 299 297 294 293 293 283 258 236 228 227 229 233 242 252 250 228 215 213 209 204 199 194 193 192 184 178 179 180 176 170 164 157 151 148 144 142 141 141 140 140 140 140 140 139 136 130 126 128 130 127
15 17 3 351 349 343 334 329 326 324 323 322 319 317 318 318 318 318 315 307 301 303 307 308 308 311 313 312 309 308 308 307 306 305 303 300 298 296 295 299 294 261 231 223 222 225 230 236 236 224 203 192 187 184 182 180 178 178 177 175 176 177 175 170 166 160 153 148 144 141 141 142 142 142 141 139 137 137 138 137 133 131 133 134 131
99 26 2 356 359 349 335 330 336 335 329 323 320 320 323 323 317 315 314 309 304 305 304 301 303 310 315 316 315 312 309 309 310 310 307 301 298 296 292 294 295 267 231 217 211 210 211 207 196 184 174 166 162 159 159 159 161 163 162 162 165 164 161 157 153 150 148 147 144 143 143 143 143 143 141 137 135 136 139 137 133 133 138 138 134
191 1 345 348 357 349 334 330 338 337 331 328 324 319 324 330 329 325 324 320 316 315 312 308 312 315 316 320 324 321 315 316 319 318 313 306 302 299 290 286 289 268 224 203 192 187 185 180 173 167 161 155 151 150 149 147 146 147 148 150 154 155 155 153 151 148 149 148 146 145 144 143 142 143 141 136 133 135 138 136 133 135 141 140 136
335 348 345 346 344 331 325 330 337 335 332 331 326 319 323 331 334 335 335 330 326 324 321 320 323 326 326 329 333 332 329 330 333 331 325 317 311 304 293 287 283 244 198 183 174 169 168 165 163 162 159 155 152 151 150 148 145 143 142 144 149 151 151 150 149 148 148 146 145 146 146 145 145 145 140 135 132 133 133 131 132 139 145 143 139
347 344 346 343 330 322 324 331 336 336 335 334 330 324 324 328 332 337 336 333 329 327 326 326 329 334 337 339 340 340 341 344 346 345 344 341 330 312 296 275 209 180 178 172 162 159 160 159 157 158 157 155 154 154 152 150 148 147 145 143 145 149 149 148 148 149 147 145 145 147 146 146 146 145 139 134 132 131 128 129 136 144 146 142 139
339 346 353 342 328 325 331 334 336 340 340 337 334 332 330 331 337 339 336 334 333 332 332 334 338 342 346 348 348 347 348 353 356 355 356 2 8 13 42 117 138 145 159 162 149 149 154 155 155 157 157 154 151 150 148 149 149 148 147 146 145 146 148 147 146 146 145 144 145 145 145 146 145 141 137 133 130 127 126 131 140 144 142 139 138
292 338 3 350 332 323 328 336 337 340 343 340 337 337 336 335 339 343 342 339 338 337 337 340 344 349 351 352 354 355 355 2 8 5 2 9 20 32 51 75 91 87 80 112 134 143 150 150 150 153 154 152 151 148 147 148 148 146 145 144 142 142 143 143 143 143 142 141 141 142 144 147 144 139 134 130 125 123 125 134 143 145 143 140 137
266 266 257 297 319 321 327 334 334 339 346 344 337 337 339 335 337 346 353 348 340 337 339 342 346 352 356 357 359 359 1 8 16 18 18 22 30 42 48 48 46 46 51 63 82 119 142 141 138 142 144 145 147 146 144 144 145 143 140 139 138 138 139 140 140 140 139 139 139 140 144 146 143 138 133 127 123 124 130 140 147 148 144 139 135
274 275 260 274 312 326 325 323 325 335 341 335 329 336 343 339 337 345 355 354 345 341 341 341 344 353 1 3 3 3 6 13 20 25 29 34 44 52 47 39 36 40 45 54 67 85 107 118 121 126 131 135 138 139 138 138 139 139 139 138 137 137 137 137 138 137 137 136 137 139 142 142 140 135 127 123 124 128 135 142 145 143 141 137 134
274 291 301 317 331 330 323 319 326 333 327 318 324 341 347 344 341 346 353 356 352 346 342 341 344 352 359 3 4 4 8 16 25 30 32 36 46 52 49 44 44 44 43 50 63 73 83 98 110 116 120 126 130 131 132 133 133 134 135 135 135 134 134 135 136 135 134 134 135 137 136 132 131 129 125 123 126 130 134 138 138 137 136 135 132
276 291 305 317 323 321 319 323 330 330 324 326 336 346 348 346 345 348 355 359 356 352 347 345 348 352 355 359 3 5 9 18 25 28 30 33 39 44 47 51 52 50 48 52 60 70 79 88 98 107 113 118 122 124 127 128 129 131 132 131 130 130 130 130 131 132 132 131 131 130 128 126 127 128 126 124 126 128 131 134 134 132 132 131 128
294 285 271 277 298 308 312 316 318 319 327 337 342 344 348 349 347 350 357 1 2 2 358 353 354 356 357 360 4 7 9 14 19 21 27 33 37 39 44 49 51 53 55 58 61 69 78 85 92 100 106 111 114 117 122 125 127 128 130 129 127 126 126 126 127 129 129 128 126 125 125 126 128 129 127 125 125 128 130 133 133 132 130 127 124
301 288 268 269 305 307 304 306 311 318 330 339 343 348 354 353 350 353 1 4 6 12 10 3 0 1 1 4 8 11 12 14 18 21 26 32 36 40 44 48 52 56 59 63 67 73 80 86 92 95 99 104 109 112 116 120 121 122 124 125 124 124 125 126 128 130 130 127 126 125 126 126 127 126 124 124 127 130 131 130 129 127 123 121 120
283 285 287 304 311 302 300 308 318 325 329 331 340 351 355 351 349 355 3 6 9 16 18 12 8 9 11 12 15 18 19 20 21 25 29 33 39 44 47 51 57 62 65 68 74 80 84 87 91 94 98 103 107 109 112 116 116 116 118 120 121 122 124 126 128 129 127 125 124 124 124 125 125 123 122 124 127 128 126 123 121 120 120 120 120
285 291 297 305 302 298 304 318 325 325 324 332 349 354 349 346 351 359 7 12 12 12 16 15 12 15 18 19 20 22 23 23 25 27 30 35 43 49 54 58 63 69 73 75 78 83 87 88 89 93 97 101 104 107 110 113 115 116 117 118 119 120 122 124 125 124 122 120 120 120 121 123 124 123 123 125 126 124 122 121 121 121 121 120 119
301 300 298 297 293 295 308 326 328 323 326 341 353 347 343 351 1 3 6 15 18 15 13 11 6 10 16 19 21 23 24 25 27 29 31 35 43 50 56 62 68 73 78 80 83 88 91 92 91 93 96 98 102 106 110 114 117 118 116 115 115 117 119 120 120 119 117 117 118 120 122 124 125 125 124 125 125 124 123 122 122 121 119 118 116
301 302 301 300 301 307 325 333 323 319 324 326 319 322 341 3 14 13 9 13 18 19 18 15 7 6 12 16 18 20 22 24 26 29 33 39 45 50 56 63 71 76 80 81 84 89 94 96 96 97 98 99 101 104 107 112 116 119 117 115 115 116 117 117 116 117 118 119 120 122 124 125 124 124 124 124 124 124 123 122 122 120 119 117 116
329 336 331 326 329 337 336 318 304 305 315 316 317 334 357 14 21 20 15 12 14 20 25 25 23 22 20 19 19 19 19 23 29 33 36 41 47 53 61 69 76 81 83 85 86 89 92 95 97 99 100 101 103 105 108 111 114 116 116 116 116 117 118 119 119 120 121 121 122 123 124 123 123 124 123 123 124 123 122 122 123 121 120 119 118
357 357 354 349 345 336 322 310 306 313 326 332 338 350 6 14 15 15 17 18 19 23 28 29 30 33 33 32 33 26 20 25 36 42 45 48 53 59 68 76 82 86 88 90 91 92 92 94 95 97 100 103 107 110 113 115 116 117 116 117 119 120 121 123 124 124 125 125 124 123 123 122 123 124 123 122 123 123 122 123 122 120 121 122 121
7 1 2 6 2 341 329 329 322 317 333 354 357 355 4 14 15 18 30 39 33 31 32 31 33 40 41 39 42 44 40 39 41 45 49 55 60 64 71 78 83 88 92 96 98 98 99 99 99 99 101 105 110 115 118 120 122 122 121 120 122 125 127 129 128 126 127 128 127 126 126 125 124 124 124 125 126 125 123 122 121 119 120 122 121
14 10 9 9 8 5 2 356 339 323 346 10 6 359 6 15 17 20 28 34 34 34 34 33 34 41 48 50 48 50 58 64 58 53 57 59 58 61 71 79 83 88 93 98 102 104 105 106 106 107 109 112 115 118 121 122 122 123 123 125 128 131 133 133 130 126 127 130 131 130 130 129 128 129 129 128 127 126 123 121 120 118 118 118 118
20 19 17 12 12 15 13 3 354 355 3 7 8 7 11 16 19 21 22 26 31 33 33 33 35 38 43 52 57 55 56 64 72 79 80 72 61 58 67 78 85 90 93 97 102 108 110 111 112 113 116 118 119 120 121 122 124 126 129 132 134 134 132 130 127 126 128 133 133 131 130 131 131 132 131 128 127 126 124 122 120 118 117 117 117
22 22 21 18 16 17 17 12 9 7 4 3 6 9 6 7 13 17 15 17 23 27 28 31 36 36 36 43 51 53 52 55 62 75 92 98 92 80 70 69 80 92 96 97 99 104 108 114 120 123 125 126 127 128 129 129 130 132 134 133 132 132 133 136 137 136 136 137 136 134 133 132 131 130 130 128 127 126 124 121 120 119 117 117 119
23 22 21 21 19 19 19 17 15 14 12 9 10 12 8 5 7 12 10 8 9 14 18 23 28 31 34 40 45 49 53 58 63 70 83 100 114 113 100 86 86 94 99 102 104 105 106 110 116 122 128 132 135 137 136 132 128 127 127 127 132 143 155 157 154 148 142 140 139 137 135 133 131 130 129 128 127 126 125 122 121 120 119 120 122
Height
781 783 784 785 787 787 789 789 790 791 792 792 793 793 793 793 793 792 792 791 791 790 789 789 788 788 787 786 785 784 784 783 782 782 781 780 779 778 777 776 775 774 773 773 772 772 771 771 770 771 773 773 774 775 776 777 778 779 782 784 786 789 793 795 797 795 792 791 789 788 790 794 798 801 803 805 809 814 815 816 818 820 822 824 827
779 781 782 783 784 785 787 787 788 789 790 790 790 790 791 790 790 790 789 789 788 787 787 786 786 785 784 783 782 782 781 780 780 779 778 778 777 776 775 774 773 771 770 769 769 768 768 767 767 767 768 769 770 771 771 772 773 773 775 778 780 783 787 790 793 793 790 790 790 788 790 793 795 799 802 803 807 812 814 814 817 819 821 822 825
777 778 780 781 782 784 785 785 786 787 787 788 788 788 788 788 788 788 787 787 786 785 784 784 783 782 781 781 780 779 778 777 777 776 775 774 774 773 773 772 771 769 768 767 766 766 764 763 763 764 764 764 765 766 767 767 768 768 770 772 773 777 781 784 787 788 787 788 789 788 789 792 794 796 800 803 807 811 812 813 816 818 819 821 822
774 776 778 779 780 782 782 783 784 785 785 785 785 785 786 786 785 785 785 784 783 783 782 781 780 780 779 778 777 776 775 774 773 772 772 771 771 770 770 769 768 767 765 764 763 763 762 760 759 760 760 760 759 761 762 762 763 764 766 767 768 770 774 777 780 783 785 786 787 787 786 789 793 796 798 803 807 809 810 812 815 816 817 819 820
772 774 776 777 779 780 781 781 782 782 783 783 783 783 783 783 783 783 782 781 781 780 779 779 778 777 776 775 774 773 772 771 770 769 768 768 767 767 766 766 765 764 763 762 760 759 759 758 757 756 756 755 754 755 757 758 759 760 761 762 764 765 767 770 773 777 781 781 783 785 784 786 791 795 797 800 804 807 810 812 813 814 816 818 819
770 772 774 775 776 778 779 779 780 780 781 781 781 781 781 781 780 780 779 779 778 777 777 776 775 775 774 772 771 770 769 768 767 766 765 764 763 763 762 762 761 760 760 759 758 756 755 755 754 754 752 750 750 751 752 754 755 755 756 758 760 761 762 764 766 771 775 777 780 782 782 783 787 791 794 795 797 801 806 810 813 814 815 816 817
768 770 772 773 774 776 776 777 778 778 778 779 779 779 778 778 778 777 777 776 775 775 774 773 773 772 771 769 768 767 766 764 763 763 762 761 760 759 758 758 757 757 756 755 755 753 752 751 751 750 749 747 746 747 748 749 750 750 752 754 755 756 757 758 760 764 768 772 775 778 779 780 782 786 791 794 795 797 800 805 810 813 813 814 816
767 769 770 771 773 773 774 775 776 776 776 776 777 776 776 776 775 775 774 774 773 772 771 770 769 769 767 766 765 764 763 761 760 759 758 758 757 756 755 754 753 752 752 751 751 750 748 748 747 746 745 744 743 744 744 744 745 745 747 749 751 752 753 755 756 758 762 767 771 773 774 776 777 781 786 791 793 794 796 799 803 807 811 813 815
765 767 768 770 771 772 772 773 774 774 774 774 774 774 774 773 773 772 772 771 770 769 768 767 766 765 764 763 762 761 759 758 756 756 755 754 754 753 751 751 750 749 748 747 747 746 745 744 742 741 741 740 740 740 740 740 741 741 742 744 746 747 749 751 751 753 756 761 766 769 769 770 772 775 780 783 785 788 792 796 800 804 808 812 814
763 765 766 768 769 770 771 771 772 772 772 772 772 772 772 771 771 770 769 768 767 766 765 764 763 762 761 760 759 757 756 754 753 752 752 751 751 750 749 748 747 746 744 743 742 742 741 740 738 737 737 736 737 736 736 737 737 737 738 739 740 742 744 746 746 747 750 755 761 764 763 764 767 770 773 778 781 784 788 793 797 801 805 809 813
761 763 764 765 767 768 769 769 770 770 770 770 770 770 769 769 768 767 766 766 765 764 763 762 760 759 758 756 755 754 752 750 749 749 749 749 749 748 747 746 744 743 742 740 738 737 737 736 734 733 732 732 732 732 733 733 733 733 734 735 736 737 739 741 741 742 745 750 755 757 756 758 763 766 769 774 778 781 784 788 791 795 799 802 806
760 762 763 764 765 766 767 767 767 768 768 768 768 768 767 767 766 765 764 763 763 762 761 760 758 757 755 753 751 750 747 746 746 745 745 745 745 745 745 743 742 740 739 737 736 734 733 732 731 729 727 726 727 728 729 728 728 729 730 731 732 733 734 736 737 737 740 744 749 750 750 753 757 760 763 768 772 775 780 784 786 788 791 794 797
759 760 761 762 763 764 765 765 765 766 766 766 766 766 765 765 763 762 762 762 762 760 759 757 756 754 752 750 747 745 743 742 742 742 741 741 742 742 741 740 738 737 735 735 733 731 730 728 727 724 722 721 722 723 724 724 724 724 726 727 728 728 730 732 733 733 736 739 743 744 745 747 750 753 757 761 765 770 775 779 781 783 786 790 792
757 758 760 761 761 762 763 763 764 764 764 764 764 764 763 762 761 761 761 761 760 758 757 755 753 751 749 746 744 741 739 738 738 738 737 737 737 737 736 735 734 732 731 731 729 728 727 725 723 721 719 718 718 718 718 719 720 720 720 721 722 723 725 726 729 731 733 735 737 739 741 741 743 747 753 756 759 763 767 770 774 779 783 787 789
756 757 758 759 760 761 761 761 762 762 762 762 762 761 761 760 759 759 759 759 758 756 754 752 750 748 746 743 741 737 735 734 734 733 733 733 733 732 731 730 728 727 726 725 725 724 723 722 720 717 716 714 713 713 714 715 716 716 715 715 716 718 719 720 723 727 730 733 735 737 738 738 740 744 749 753 756 759 761 764 769 774 779 783 787
754 755 757 758 759 759 759 760 760 760 760 760 759 759 758 757 757 758 757 757 755 753 751 748 746 744 742 740 737 733 730 730 729 729 728 728 729 727 726 725 723 721 719 719 719 719 718 718 716 714 712 710 708 709 710 711 711 711 710 710 710 712 713 715 719 722 726 730 733 735 736 737 739 742 745 749 753 756 760 764 768 771 775 781 786
752 753 755 756 757 758 758 758 758 758 758 758 757 756 756 755 755 756 755 754 752 750 748 745 743 740 737 735 732 728 725 725 725 724 723 723 723 722 721 719 717 715 713 713 713 713 712 712 711 710 708 705 704 705 706 708 708 707 706 706 706 707 708 710 713 718 722 725 728 731 733 735 737 740 743 745 747 751 756 761 765 768 772 778 783
751 752 754 755 756 756 757 757 757 757 756 756 755 754 753 753 753 754 753 751 749 747 744 741 739 736 733 731 728 724 721 719 719 718 717 718 717 716 715 713 711 709 708 707 707 706 705 705 706 705 702 700 700 701 702 703 704 703 703 703 702 703 703 704 708 713 718 722 724 726 729 731 734 738 741 742 743 745 749 754 759 763 768 772 778
750 751 753 754 755 755 755 755 755 755 755 754 753 752 752 751 751 751 751 749 747 744 741 738 735 732 730 727 724 721 716 714 713 712 711 711 711 710 709 708 705 703 703 702 701 700 699 699 698 698 697 696 697 697 698 699 699 699 699 699 699 699 699 701 704 708 713 719 722 724 726 728 731 735 738 738 740 743 746 750 754 758 764 769 773
750 752 752 753 754 754 754 754 754 754 754 753 752 751 750 750 750 749 748 747 745 742 739 736 732 729 726 723 719 717 712 709 707 706 704 704 704 703 703 701 699 698 698 697 695 694 693 692 691 691 691 692 692 693 693 694 695 696 696 695 695 695 696 699 702 705 709 715 720 722 724 726 729 733 735 736 739 743 746 750 752 756 760 765 769
750 752 752 752 753 752 752 753 752 753 752 752 751 750 749 748 748 747 747 745 743 740 737 734 730 726 723 719 716 712 709 704 701 699 698 697 697 697 696 694 693 693 691 690 689 687 686 685 684 684 685 686 687 687 688 689 691 692 691 691 692 693 694 698 702 704 707 711 716 719 721 723 727 731 733 736 739 741 744 749 753 756 758 761 767
750 751 751 751 751 751 752 752 751 751 751 750 749 748 747 747 746 746 745 743 740 737 734 731 727 723 720 716 712 708 704 700 696 694 692 691 690 690 689 687 687 686 684 682 682 681 680 680 678 678 679 680 681 682 683 685 687 688 688 689 690 691 692 697 701 703 705 709 713 716 718 720 724 728 732 737 740 741 743 749 754 757 760 763 766
749 750 750 750 750 750 750 750 750 749 749 748 747 746 745 746 746 745 744 741 738 736 732 729 726 721 717 713 709 705 700 696 692 689 687 685 684 683 682 680 680 678 676 675 675 675 675 674 673 673 674 674 675 676 678 680 683 685 686 686 687 688 690 695 698 701 704 707 711 715 717 718 721 726 731 735 739 742 745 749 753 757 761 764 767
748 749 749 749 749 749 748 748 748 747 747 746 745 744 744 745 745 744 742 740 737 734 731 728 724 719 714 710 705 701 697 692 687 684 682 679 678 676 675 672 671 670 669 669 669 670 670 669 668 668 668 668 669 671 673 676 679 682 683 683 684 686 688 692 696 699 703 707 710 714 717 719 721 726 730 733 737 742 745 749 754 757 760 762 766
747 748 748 747 748 748 747 747 746 746 745 745 744 743 744 744 744 742 740 738 736 732 729 726 722 718 713 707 702 697 693 688 683 679 677 674 672 670 667 664 662 662 662 663 664 665 665 664 664 664 663 664 665 666 669 672 674 677 679 679 681 684 687 690 694 698 701 706 710 713 717 721 724 726 729 731 736 741 744 748 754 757 758 761 768
746 746 747 747 747 747 746 745 745 745 744 743 742 743 743 743 742 741 739 736 734 731 728 724 720 716 710 705 699 694 689 684 680 675 672 669 666 664 661 657 654 653 654 656 658 659 659 660 661 661 660 660 661 663 665 668 670 673 676 676 677 681 685 689 692 696 700 706 710 713 717 721 725 727 729 732 736 739 742 746 753 756 759 763 770
745 745 746 746 746 746 745 745 744 743 742 741 741 741 742 742 741 739 737 735 732 729 726 722 719 714 709 703 698 692 687 682 677 672 669 665 662 658 655 651 647 646 647 649 652 654 656 657 658 658 657 658 659 660 662 664 667 670 672 674 676 680 684 687 691 694 699 704 709 713 717 721 725 729 731 733 737 739 741 745 750 755 762 767 772
745 745 745 745 745 745 745 744 743 742 740 740 740 740 740 740 740 738 735 733 731 727 724 721 718 713 708 702 697 691 685 680 675 670 666 661 657 653 649 645 642 640 640 642 646 650 653 655 655 655 654 655 657 659 660 662 664 667 671 673 676 680 684 687 691 694 699 703 708 713 717 721 725 729 732 735 737 739 742 746 750 754 763 769 773
744 744 744 744 745 745 744 743 742 741 740 739 739 738 738 738 737 736 734 732 729 726 723 720 716 712 708 703 697 690 684 678 673 668 662 656 652 649 645 642 640 637 636 637 641 647 650 651 652 652 652 653 655 657 659 662 664 668 671 674 677 681 684 687 691 695 698 702 707 712 717 721 726 729 733 736 738 740 744 748 751 756 765 771 774
742 743 743 743 744 745 744 742 741 740 739 738 737 737 736 735 734 733 731 729 727 724 721 718 714 711 706 702 696 691 684 677 671 664 658 652 647 644 642 640 638 636 635 635 639 643 646 648 649 650 650 652 654 657 659 662 665 669 672 675 678 681 684 687 690 694 698 702 706 712 717 722 726 730 733 734 737 742 747 749 751 759 767 772 774
741 741 741 742 744 744 743 741 741 740 738 737 736 735 734 733 732 731 729 727 724 722 719 716 713 709 704 699 694 688 683 676 669 662 655 649 644 642 640 638 637 637 637 636 637 640 642 645 647 649 650 651 654 656 659 662 665 668 673 677 680 682 684 688 691 694 698 702 708 713 717 721 726 732 733 732 735 743 748 750 754 763 770 772 774
740 741 742 742 743 743 742 741 740 739 738 736 735 733 732 731 730 729 728 726 722 720 717 714 710 707 702 697 691 686 680 674 668 662 655 649 645 642 640 638 637 639 640 639 638 638 640 643 645 647 649 652 654 656 659 661 664 667 671 676 681 683 686 688 692 695 698 702 708 714 717 721 727 731 732 732 735 740 745 751 759 767 771 773 774
741 741 742 742 742 741 740 740 739 738 737 736 734 732 731 730 728 727 726 724 721 718 715 712 708 704 700 695 690 685 679 673 668 662 657 652 648 645 642 641 640 642 643 642 641 640 641 643 644 646 649 651 654 656 658 661 664 667 670 675 679 684 687 690 694 698 701 704 709 714 718 723 727 729 730 731 733 736 742 754 764 769 771 773 775
742 742 743 743 742 740 739 739 738 737 737 736 734 732 731 730 728 725 724 722 719 716 713 711 707 703 698 693 689 684 679 673 668 663 659 655 651 648 646 644 644 644 645 645 644 644 644 645 647 648 650 652 654 655 658 661 664 668 672 676 680 685 689 692 696 699 703 707 712 716 721 726 727 727 728 730 731 735 745 758 767 770 772 773 774
742 742 742 742 741 740 739 738 738 737 736 735 734 732 730 729 727 725 724 723 720 716 713 710 706 702 698 693 688 684 679 674 670 665 661 657 654 651 649 648 647 647 648 648 647 647 648 649 649 650 651 653 655 657 659 662 666 670 673 677 682 686 690 694 698 701 704 709 713 719 724 728 728 726 726 727 730 737 749 760 767 771 772 773 774
741 741 740 739 739 739 738 738 737 736 736 735 734 731 729 728 727 725 724 724 723 718 714 710 706 702 698 694 689 685 680 676 672 668 664 661 657 655 653 653 653 653 652 652 652 651 651 652 652 653 654 656 658 660 662 665 669 672 675 678 682 687 691 695 699 703 706 710 715 720 726 729 730 728 726 727 733 743 753 761 767 770 772 772 774
741 740 739 739 739 739 738 736 736 736 735 734 732 731 729 728 727 725 725 725 723 720 716 712 707 703 698 694 690 686 682 679 675 670 667 664 661 659 658 658 658 658 657 657 657 656 656 656 656 657 659 661 663 665 667 669 672 676 679 682 686 689 693 697 700 704 708 712 716 721 725 728 730 730 728 730 739 748 756 762 767 770 771 773 774
741 740 740 740 740 740 738 736 735 735 734 733 731 730 729 728 727 725 725 725 724 721 718 714 709 705 701 697 692 688 685 681 676 673 671 668 666 664 664 663 662 662 662 662 661 661 660 661 661 662 664 666 668 670 671 673 676 679 682 686 690 693 697 701 704 708 711 713 717 721 724 728 733 735 734 736 742 750 757 763 767 769 771 772 773
741 741 740 740 740 740 738 737 735 734 733 732 731 730 729 729 727 725 725 724 724 723 720 717 713 709 706 701 696 692 688 684 680 678 676 674 672 670 669 668 667 667 667 667 667 666 666 666 667 668 669 671 673 675 677 678 680 683 685 688 692 696 700 704 708 712 715 716 718 722 726 731 736 740 739 740 745 752 759 764 767 768 770 771 773
742 741 740 739 739 740 738 736 735 733 732 732 732 730 729 729 727 726 725 724 724 723 722 720 716 713 709 705 701 696 693 689 687 684 682 679 677 675 674 673 673 672 672 672 672 672 672 671 672 674 676 677 679 681 683 684 686 688 690 692 695 699 704 708 713 717 718 719 720 724 729 734 739 742 742 744 749 755 760 764 766 768 769 771 773
742 741 739 738 739 739 737 736 733 732 732 732 732 731 730 729 728 726 725 725 724 724 723 722 720 716 713 709 705 702 699 696 693 690 687 685 683 682 680 680 679 677 677 678 678 678 678 678 679 680 682 683 685 687 689 690 692 694 696 699 702 705 708 712 717 721 722 721 723 726 731 737 741 744 746 749 753 757 760 763 765 768 770 772 774
742 741 739 739 739 737 736 735 734 733 732 732 731 732 731 730 728 726 725 725 725 724 724 723 722 719 716 713 710 706 704 701 698 696 693 691 690 688 687 686 685 684 683 683 683 683 683 683 685 686 687 689 691 692 694 696 698 699 702 705 708 711 714 717 721 723 724 725 726 728 733 739 744 747 750 753 756 758 761 763 766 769 771 773 774
742 741 740 740 738 737 735 736 736 735 733 732 732 733 732 729 728 727 726 725 725 725 724 724 723 721 719 717 714 711 708 706 703 701 699 697 696 694 693 692 691 690 689 689 689 689 688 688 689 691 692 694 696 697 699 701 703 704 707 710 714 717 719 722 724 726 727 728 729 733 738 744 748 751 754 755 757 759 762 765 767 769 771 773 774
741 740 739 738 737 736 736 736 736 735 734 733 733 732 731 729 729 728 727 726 725 725 725 724 724 722 721 720 717 715 713 711 709 707 705 703 701 700 699 697 696 696 695 695 695 695 694 694 695 696 698 700 701 702 704 706 708 710 712 716 719 722 725 726 728 730 731 732 735 739 744 748 751 753 755 757 759 761 763 766 768 769 771 773 775
740 739 739 738 737 737 736 736 736 735 734 733 732 730 729 729 729 729 728 727 725 725 725 724 724 723 723 722 720 719 717 716 714 712 710 708 707 705 704 703 702 702 701 701 701 700 700 701 701 702 704 706 707 708 709 711 714 716 719 721 724 727 729 731 732 734 736 738 741 744 747 750 753 755 757 759 761 763 765 767 769 770 772 774 776
740 739 739 738 738 737 737 737 736 735 733 732 731 730 730 730 728 728 727 726 725 725 724 724 724 724 723 723 722 721 720 719 718 717 715 714 713 711 710 709 708 708 707 707 706 706 706 707 708 708 710 711 712 714 716 718 721 723 725 727 729 732 734 735 737 739 741 743 745 748 750 752 755 757 759 761 763 765 766 769 770 772 774 776 777
742 740 739 738 738 737 737 736 736 735 734 733 733 732 731 730 728 726 725 725 724 724 724 724 724 724 724 724 724 723 723 722 721 720 720 719 718 716 715 714 713 712 712 712 711 711 712 712 713 714 715 717 718 720 722 724 727 729 731 733 735 737 739 740 741 743 745 747 748 751 753 755 757 760 761 763 765 767 769 770 772 774 775 777 779
744 742 741 739 738 737 737 736 736 735 734 734 734 733 732 731 729 727 726 725 724 724 724 724 724 724 724 725 725 724 724 724 724 723 723 723 722 722 721 719 718 717 717 716 716 717 717 718 718 719 721 723 724 726 728 730 732 734 736 738 740 741 742 743 744 746 748 750 752 754 756 758 760 762 763 765 767 769 770 772 774 775 777 779 780
746 745 744 742 740 739 739 738 737 735 734 734 734 733 732 731 730 729 727 726 725 724 724 724 724 724 725 725 725 725 725 726 726 726 726 725 725 725 725 724 723 723 722 722 722 722 722 722 723 724 726 728 729 731 733 735 736 738 740 741 743 744 745 746 748 750 752 754 756 757 759 760 762 764 766 768 770 771 772 774 775 777 778 780 782
749 748 747 746 744 743 742 741 740 738 738 737 735 734 734 732 731 730 729 728 727 726 725 724 725 725 725 725 726 726 726 727 727 727 728 728 728 728 728 727 727 727 727 727 726 726 726 727 728 729 731 732 733 735 737 738 740 741 743 744 745 747 748 750 751 753 755 757 758 760 762 763 765 767 769 770 771 773 774 775 777 778 780 781 783
751 750 749 749 747 746 746 744 743 742 741 740 739 738 737 736 734 734 733 732 731 729 728 726 726 726 726 726 727 727 728 728 728 729 729 730 730 730 730 730 730 730 730 731 731 731 731 731 732 733 734 735 737 738 740 741 742 744 745 747 748 749 751 753 755 756 758 759 761 763 764 765 767 769 770 772 773 774 776 777 778 780 782 783 785